Total_Precipitation_Accumulation
0.08 0.16 0.24 0.26 0.23 0.20 0.17 0.16 0.28 0.34 0.47 0.55 0.71 0.71 0.73 0.70 0.64 0.62 0.72 0.69 0.64 0.64 0.72 0.74 0.79 0.80 0.80 0.82 0.85 1.05 1.57 1.84 1.80 1.73 1.77 1.75 1.75 1.87 1.95 2.00 2.04 2.28 2.43 2.51
0.11 0.15 0.17 0.18 0.21 0.19 0.14 0.13 0.12 0.19 0.37 0.42 0.67 0.84 0.82 0.82 0.79 0.72 0.71 0.67 0.65 0.58 0.67 0.79 0.87 0.89 0.90 0.96 1.01 1.14 1.52 1.82 1.79 1.69 1.66 1.60 1.68 1.82 1.95 2.03 2.21 2.40 2.40 2.39
0.17 0.20 0.19 0.26 0.22 0.18 0.17 0.16 0.17 0.27 0.41 0.43 0.53 0.70 0.80 0.82 0.78 0.71 0.72 0.65 0.66 0.70 0.78 0.98 0.92 0.94 1.02 0.96 1.02 1.21 1.58 1.83 1.87 1.77 1.72 1.70 1.64 1.82 2.02 2.25 2.44 2.54 2.48 2.42
0.22 0.26 0.38 0.30 0.22 0.23 0.26 0.30 0.31 0.34 0.38 0.42 0.56 0.64 0.78 0.95 0.82 0.68 0.71 0.73 0.81 0.80 0.86 0.94 0.93 0.99 1.06 1.08 1.13 1.30 1.60 1.84 1.92 1.89 1.90 1.98 1.99 2.07 2.26 2.51 2.69 2.71 2.66 2.55
0.32 0.36 0.43 0.39 0.31 0.35 0.40 0.46 0.48 0.50 0.44 0.50 0.58 0.70 0.87 0.82 0.81 0.85 0.86 0.86 0.91 1.00 1.05 1.13 1.12 1.08 1.16 1.31 1.37 1.44 1.53 1.80 2.00 2.08 2.14 2.12 2.17 2.43 2.64 2.81 2.84 2.80 2.87 2.77
0.45 0.54 0.62 0.60 0.44 0.38 0.47 0.81 0.63 0.65 0.63 0.57 0.62 0.91 1.06 0.88 0.79 0.79 0.91 1.01 1.01 1.08 1.14 1.17 1.22 1.30 1.36 1.49 1.65 1.78 1.88 2.04 2.32 2.53 2.67 2.70 2.77 2.84 2.91 3.01 2.97 2.98 2.89 2.83
0.67 0.80 0.75 0.58 0.51 0.46 0.88 1.23 0.90 0.86 0.84 0.75 0.87 1.00 1.01 0.87 0.81 0.77 0.81 0.95 1.04 1.07 1.18 1.28 1.30 1.45 1.73 1.87 1.96 2.14 2.31 2.39 2.65 3.00 3.19 3.14 3.17 3.07 2.99 2.98 3.00 3.00 2.88 2.78
0.91 1.16 1.23 0.68 0.62 0.98 1.23 1.04 1.05 1.07 1.05 0.98 0.97 1.02 1.04 1.00 0.86 0.82 0.83 0.89 1.01 1.10 1.19 1.39 1.65 1.85 2.14 2.32 2.38 2.46 2.62 2.92 3.16 3.33 3.16 3.06 3.24 3.14 3.14 3.20 3.17 3.07 2.97 2.86
1.18 1.41 1.20 0.84 0.95 1.13 1.12 1.10 1.14 1.12 1.07 0.97 0.93 1.10 1.05 0.99 0.99 0.88 0.85 0.90 1.00 1.10 1.29 1.49 1.80 2.20 2.46 2.54 2.74 2.75 2.82 3.03 3.10 3.16 3.26 3.39 3.46 3.34 3.27 3.26 3.19 3.01 2.91 2.72
1.48 1.54 1.30 1.14 1.13 1.08 1.11 1.14 1.10 1.03 0.99 1.00 0.97 0.99 1.01 0.98 0.98 0.93 0.92 1.00 1.05 1.17 1.38 1.67 1.98 2.33 2.50 2.56 2.60 2.63 2.67 2.72 2.84 3.02 3.15 3.26 3.48 3.47 3.34 3.16 3.06 2.97 2.93 2.80
1.98 2.04 1.89 1.74 1.49 1.31 1.26 1.19 1.23 1.19 1.11 1.08 1.05 1.01 0.97 1.00 0.99 0.99 0.98 1.09 1.19 1.30 1.42 1.57 1.82 2.11 2.23 2.40 2.53 2.70 2.74 2.67 2.60 2.64 2.77 2.92 3.05 3.13 3.06 3.02 2.87 2.75 2.59 2.54
2.27 2.01 1.98 2.13 1.86 1.61 1.55 1.53 1.53 1.49 1.44 1.32 1.24 1.18 1.11 1.07 1.00 0.97 0.97 1.06 1.19 1.33 1.50 1.66 1.82 2.01 2.12 2.31 2.48 2.66 2.67 2.56 2.52 2.49 2.56 2.62 2.63 2.61 2.48 2.37 2.23 2.06 2.00 1.93
1.92 1.82 1.80 1.97 1.90 1.80 1.86 2.00 2.02 1.88 1.65 1.38 1.25 1.22 1.16 1.04 0.98 0.98 1.05 1.17 1.34 1.42 1.56 1.74 1.83 1.94 2.10 2.29 2.45 2.60 2.58 2.43 2.30 2.20 2.22 2.22 2.27 2.44 2.50 2.28 2.08 1.86 1.75 1.63
1.81 2.03 2.25 2.25 2.20 2.04 2.04 2.14 2.14 1.91 1.77 1.59 1.40 1.32 1.23 1.13 1.04 1.02 1.06 1.19 1.31 1.40 1.42 1.53 1.68 1.78 1.96 2.18 2.31 2.42 2.42 2.43 2.32 2.20 2.18 2.18 2.25 2.35 2.49 2.48 2.20 1.83 1.74 1.65
2.04 2.00 2.20 2.30 2.18 2.18 2.14 2.14 2.19 2.06 1.83 1.81 1.71 1.52 1.42 1.41 1.39 1.33 1.28 1.30 1.41 1.49 1.52 1.54 1.67 1.77 1.95 2.24 2.31 2.29 2.25 2.22 2.18 2.23 2.20 2.19 2.32 2.36 2.36 2.40 2.27 2.06 1.80 1.58
2.41 2.16 2.20 2.31 2.19 2.09 2.03 1.98 1.98 1.93 1.79 1.72 1.71 1.66 1.50 1.46 1.50 1.49 1.52 1.58 1.76 1.80 1.78 1.79 1.82 1.87 2.13 2.42 2.42 2.32 2.20 2.12 2.00 1.98 1.97 1.95 2.01 2.11 2.15 2.27 2.25 2.16 1.99 1.69
2.46 2.47 2.44 2.25 2.09 2.01 1.88 1.76 1.71 1.69 1.75 1.76 1.61 1.57 1.48 1.37 1.38 1.48 1.60 1.68 1.79 1.76 1.72 1.78 1.81 1.89 2.14 2.37 2.42 2.34 2.14 1.97 1.72 1.57 1.62 1.73 1.87 1.99 2.02 2.08 2.18 2.13 1.92 1.68
2.14 2.18 2.20 2.03 1.92 1.85 1.77 1.64 1.52 1.46 1.53 1.56 1.43 1.39 1.40 1.44 1.53 1.62 1.76 1.80 1.81 1.74 1.63 1.57 1.58 1.73 1.97 2.05 2.06 2.09 2.01 1.86 1.64 1.49 1.53 1.62 1.74 1.93 2.01 1.96 1.94 1.93 1.82 1.62
1.96 1.91 1.91 1.76 1.68 1.63 1.56 1.47 1.46 1.42 1.39 1.48 1.46 1.40 1.43 1.52 1.67 1.77 1.82 1.99 2.04 1.88 1.66 1.51 1.53 1.57 1.73 1.78 1.82 1.92 1.89 1.82 1.70 1.61 1.67 1.73 1.76 1.81 1.82 1.80 1.75 1.68 1.62 1.52
2.03 1.90 1.89 1.77 1.63 1.59 1.52 1.44 1.37 1.36 1.41 1.47 1.51 1.55 1.65 1.71 1.86 2.00 2.06 2.12 2.14 1.99 1.70 1.53 1.44 1.47 1.53 1.58 1.65 1.62 1.67 1.70 1.66 1.61 1.64 1.69 1.66 1.69 1.64 1.62 1.59 1.53 1.47 1.45
2.04 2.01 1.95 1.89 1.77 1.62 1.55 1.51 1.47 1.43 1.42 1.48 1.60 1.67 1.80 1.90 2.00 2.18 2.39 2.35 2.14 1.97 1.72 1.53 1.38 1.35 1.35 1.44 1.53 1.51 1.55 1.62 1.64 1.65 1.65 1.66 1.68 1.71 1.64 1.56 1.54 1.52 1.51 1.49
1.84 1.88 1.86 1.77 1.69 1.62 1.54 1.54 1.52 1.49 1.49 1.56 1.63 1.72 1.85 1.93 2.03 2.16 2.22 2.37 2.21 2.07 1.70 1.43 1.29 1.25 1.26 1.33 1.29 1.41 1.45 1.49 1.53 1.55 1.56 1.57 1.58 1.62 1.62 1.54 1.47 1.39 1.37 1.38
1.68 1.70 1.75 1.74 1.69 1.65 1.57 1.55 1.58 1.58 1.65 1.76 1.79 1.88 1.97 1.95 2.03 2.40 2.49 2.22 2.06 1.93 1.55 1.38 1.37 1.31 1.28 1.21 1.22 1.31 1.36 1.41 1.43 1.35 1.30 1.33 1.38 1.45 1.51 1.47 1.46 1.38 1.33 1.35
1.69 1.61 1.65 1.63 1.57 1.61 1.62 1.57 1.64 1.77 1.81 1.84 1.80 1.84 1.97 1.99 1.94 2.00 2.24 2.27 2.08 1.85 1.53 1.48 1.40 1.29 1.25 1.18 1.32 1.38 1.37 1.38 1.37 1.25 1.15 1.17 1.24 1.34 1.42 1.48 1.49 1.43 1.36 1.34
1.69 1.55 1.45 1.49 1.59 1.70 1.73 1.74 1.83 1.89 1.83 1.80 1.68 1.68 1.86 2.03 2.09 2.00 1.92 1.93 1.99 1.81 1.60 1.55 1.44 1.36 1.18 1.12 1.28 1.42 1.45 1.46 1.37 1.26 1.19 1.25 1.29 1.33 1.35 1.38 1.39 1.34 1.33 1.31
1.73 1.60 1.53 1.45 1.53 1.65 1.74 1.87 2.00 1.99 1.96 1.98 1.80 1.65 1.76 1.84 1.78 1.76 1.76 1.76 1.77 1.77 1.61 1.53 1.41 1.37 1.26 1.22 1.29 1.41 1.55 1.62 1.48 1.33 1.30 1.38 1.36 1.33 1.32 1.30 1.30 1.29 1.25 1.20
1.63 1.60 1.60 1.55 1.59 1.64 1.75 1.89 2.08 2.14 2.09 2.09 1.96 1.80 1.74 1.66 1.55 1.54 1.56 1.65 1.67 1.67 1.65 1.61 1.48 1.37 1.29 1.27 1.30 1.34 1.45 1.51 1.48 1.41 1.37 1.40 1.42 1.42 1.34 1.27 1.23 1.21 1.21 1.16